• In Denmark
  • List of Countries
  • For 7 days
  • Water Temperature
  • Satellite Maps
  • Weather Map
  • Weather Widgets
  • user-avatar
    Login

    Hourly Weather Brasília

    Today, 15 October, Monday

    Time Temperature Precipitation Wind Pressure Humidity
    00:00 +24°C° 0.4 mm 1 mps 665 mmHg 74%
    01:00 +24°C° 0.6 mm 1 mps 665 mmHg 75%
    02:00 +23°C° 0.6 mm 1 mps 665 mmHg 76%
    03:00 +23°C° 0.6 mm 1 mps 665 mmHg 77%
    04:00 +23°C° 0.6 mm 1 mps 665 mmHg 79%
    05:00 +22°C° 0.6 mm 1 mps 665 mmHg 81%
    06:00 +22°C° 0.6 mm 1 mps 665 mmHg 83%
    07:00 +23°C° 0.3 mm 1 mps 665 mmHg 79%
    08:00 +24°C° 0.3 mm 1 mps 666 mmHg 75%
    09:00 +25°C° 0.3 mm 2 mps 666 mmHg 71%
    10:00 +26°C° 0 mm 1 mps 666 mmHg 65%
    11:00 +28°C° 0 mm 1 mps 666 mmHg 59%
    12:00 +29°C° 0 mm 1 mps 666 mmHg 53%
    13:00 +30°C° 0 mm 1 mps 666 mmHg 50%
    14:00 +31°C° 0 mm 1 mps 666 mmHg 47%
    15:00 +31°C° 0 mm 1 mps 665 mmHg 43%
    16:00 +30°C° 0 mm 1 mps 665 mmHg 47%
    17:00 +29°C° 0 mm 1 mps 665 mmHg 51%
    18:00 +28°C° 0 mm 1 mps 664 mmHg 55%
    19:00 +27°C° 1.3 mm 2 mps 664 mmHg 60%
    20:00 +26°C° 1.3 mm 2 mps 664 mmHg 65%
    21:00 +25°C° 1.3 mm 2 mps 665 mmHg 70%
    22:00 +25°C° 0.2 mm 2 mps 664 mmHg 72%
    23:00 +24°C° 0.2 mm 1 mps 664 mmHg 74%

    Tomorrow, 16 October, Tuesday

    Time Temperature Precipitation Wind Pressure Humidity
    00:00 +24°C° 0.2 mm 1 mps 664 mmHg 76%
    01:00 +24°C° 0.4 mm 1 mps 664 mmHg 77%
    02:00 +23°C° 0.4 mm 1 mps 664 mmHg 79%
    03:00 +23°C° 0.4 mm 1 mps 663 mmHg 80%
    04:00 +23°C° 0.1 mm 1 mps 663 mmHg 81%
    05:00 +23°C° 0.1 mm 1 mps 664 mmHg 82%
    06:00 +23°C° 0.1 mm 1 mps 664 mmHg 82%
    07:00 +24°C° 0 mm 1 mps 665 mmHg 75%
    08:00 +26°C° 0 mm 1 mps 665 mmHg 68%
    09:00 +27°C° 0 mm 2 mps 666 mmHg 61%
    10:00 +29°C° 0 mm 1 mps 667 mmHg 54%
    11:00 +32°C° 0 mm 1 mps 667 mmHg 47%
    12:00 +34°C° 0 mm 1 mps 667 mmHg 39%
    13:00 +33°C° 0 mm 1 mps 666 mmHg 41%
    14:00 +32°C° 0 mm 1 mps 665 mmHg 43%
    15:00 +31°C° 0 mm 1 mps 664 mmHg 45%
    16:00 +30°C° 1.2 mm 1 mps 664 mmHg 50%
    17:00 +28°C° 1.2 mm 1 mps 664 mmHg 55%
    18:00 +27°C° 1.2 mm 1 mps 664 mmHg 60%
    19:00 +27°C° 0.4 mm 1 mps 664 mmHg 64%
    20:00 +26°C° 0.4 mm 1 mps 664 mmHg 68%
    21:00 +25°C° 0.4 mm 1 mps 664 mmHg 72%
    22:00 +25°C° 1.1 mm 1 mps 664 mmHg 74%
    23:00 +24°C° 1.1 mm 1 mps 664 mmHg 76%

    Day after tomorrow, 17 October, Wednesday

    Time Temperature Precipitation Wind Pressure Humidity
    00:00 +24°C° 1.1 mm 1 mps 665 mmHg 79%
    01:00 +24°C° 0.8 mm 1 mps 664 mmHg 79%
    02:00 +23°C° 0.8 mm 1 mps 664 mmHg 80%
    03:00 +21°C° 0.8 mm 0 mps 664 mmHg 81%
    04:00 +23°C° 0.1 mm 1 mps 664 mmHg 82%
    05:00 +23°C° 0.1 mm 1 mps 664 mmHg 82%
    06:00 +23°C° 0.1 mm 1 mps 664 mmHg 83%
    07:00 +24°C° 0 mm 1 mps 665 mmHg 75%
    08:00 +26°C° 0 mm 2 mps 666 mmHg 67%
    09:00 +28°C° 0 mm 2 mps 667 mmHg 60%
    10:00 +29°C° 0 mm 2 mps 667 mmHg 54%
    11:00 +31°C° 0 mm 3 mps 667 mmHg 49%
    12:00 +33°C° 0 mm 3 mps 667 mmHg 43%
    13:00 +33°C° 0 mm 3 mps 666 mmHg 44%
    14:00 +31°C° 0 mm 3 mps 665 mmHg 44%
    15:00 +31°C° 0 mm 2 mps 665 mmHg 45%
    16:00 +30°C° 0.1 mm 2 mps 665 mmHg 49%
    17:00 +29°C° 0.1 mm 2 mps 664 mmHg 53%
    18:00 +28°C° 0.1 mm 2 mps 664 mmHg 57%
    19:00 +27°C° 1.1 mm 2 mps 665 mmHg 61%
    20:00 +26°C° 1.1 mm 2 mps 665 mmHg 66%
    21:00 +25°C° 1.1 mm 2 mps 665 mmHg 70%
    22:00 +24°C° 0.1 mm 2 mps 665 mmHg 72%
    23:00 +24°C° 0.1 mm 2 mps 665 mmHg 75%

    18 October, Thursday

    Time Temperature Precipitation Wind Pressure Humidity
    00:00 +23°C° 0.1 mm 2 mps 665 mmHg 77%
    01:00 +23°C° 0 mm 2 mps 664 mmHg 78%
    02:00 +23°C° 0 mm 2 mps 664 mmHg 78%
    03:00 +23°C° 0 mm 2 mps 663 mmHg 79%
    04:00 +23°C° 0 mm 2 mps 664 mmHg 79%
    05:00 +21°C° 0 mm 2 mps 664 mmHg 80%
    06:00 +21°C° 0 mm 2 mps 665 mmHg 80%
    07:00 +24°C° 0.1 mm 3 mps 666 mmHg 74%
    08:00 +25°C° 0.1 mm 4 mps 666 mmHg 68%
    09:00 +27°C° 0.1 mm 4 mps 667 mmHg 63%
    10:00 +28°C° 1.1 mm 4 mps 667 mmHg 59%
    11:00 +29°C° 1.1 mm 3 mps 667 mmHg 55%
    12:00 +30°C° 1.1 mm 3 mps 666 mmHg 52%
    13:00 +30°C° 1 mm 3 mps 666 mmHg 51%
    14:00 +30°C° 1 mm 3 mps 665 mmHg 50%
    15:00 +30°C° 1 mm 3 mps 664 mmHg 50%
    16:00 +29°C° 0.5 mm 2 mps 664 mmHg 53%
    17:00 +28°C° 0.5 mm 2 mps 664 mmHg 57%
    18:00 +27°C° 0.5 mm 2 mps 664 mmHg 60%
    19:00 +27°C° 0.5 mm 1 mps 664 mmHg 63%
    20:00 +26°C° 0.5 mm 1 mps 664 mmHg 66%
    21:00 +25°C° 0.5 mm 1 mps 665 mmHg 68%
    22:00 +25°C° 0.1 mm 1 mps 665 mmHg 70%
    23:00 +24°C° 0.1 mm 1 mps 665 mmHg 72%

    19 October, Friday

    Time Temperature Precipitation Wind Pressure Humidity
    00:00 +24°C° 0.1 mm 1 mps 664 mmHg 73%
    01:00 +23°C° 0.1 mm 1 mps 664 mmHg 75%
    02:00 +23°C° 0.1 mm 1 mps 664 mmHg 77%
    03:00 +23°C° 0.1 mm 1 mps 664 mmHg 79%
    04:00 +22°C° 0.2 mm 1 mps 664 mmHg 80%
    05:00 +20°C° 0.2 mm 0 mps 664 mmHg 81%
    06:00 +20°C° 0.2 mm 0 mps 665 mmHg 82%
    07:00 +24°C° 0 mm 1 mps 665 mmHg 74%
    08:00 +26°C° 0 mm 1 mps 666 mmHg 65%
    09:00 +28°C° 0 mm 1 mps 667 mmHg 56%
    10:00 +29°C° 0 mm 1 mps 667 mmHg 50%
    11:00 +31°C° 0 mm 2 mps 666 mmHg 44%
    12:00 +32°C° 0 mm 2 mps 666 mmHg 38%
    13:00 +33°C° 0 mm 1 mps 665 mmHg 37%
    14:00 +33°C° 0 mm 1 mps 664 mmHg 36%
    15:00 +33°C° 0 mm 1 mps 664 mmHg 35%
    16:00 +32°C° 0 mm 1 mps 664 mmHg 38%
    17:00 +31°C° 0 mm 1 mps 663 mmHg 41%
    18:00 +30°C° 0 mm 1 mps 663 mmHg 43%
    19:00 +29°C° 0.4 mm 1 mps 664 mmHg 49%
    20:00 +28°C° 0.4 mm 1 mps 664 mmHg 54%
    21:00 +27°C° 0.4 mm 1 mps 664 mmHg 59%
    22:00 +26°C° 1.4 mm 1 mps 664 mmHg 64%
    23:00 +25°C° 1.4 mm 1 mps 664 mmHg 69%

    20 October, Saturday

    Time Temperature Precipitation Wind Pressure Humidity
    00:00 +25°C° 1.4 mm 2 mps 663 mmHg 74%
    01:00 +24°C° 0.4 mm 1 mps 663 mmHg 76%
    02:00 +24°C° 0.4 mm 1 mps 663 mmHg 77%
    03:00 +24°C° 0.4 mm 1 mps 662 mmHg 78%
    04:00 +23°C° 0.1 mm 1 mps 662 mmHg 79%
    05:00 +23°C° 0.1 mm 1 mps 663 mmHg 79%
    06:00 +23°C° 0.1 mm 1 mps 663 mmHg 79%
    07:00 +23°C° 0.1 mm 0 mps 664 mmHg 71%
    08:00 +25°C° 0.1 mm 0 mps 664 mmHg 63%
    09:00 +27°C° 0.1 mm 0 mps 665 mmHg 55%
    10:00 +29°C° 0 mm 0 mps 665 mmHg 50%
    11:00 +30°C° 0 mm 0 mps 665 mmHg 44%
    12:00 +33°C° 0 mm 1 mps 665 mmHg 39%
    13:00 +33°C° 0 mm 1 mps 664 mmHg 40%
    14:00 +30°C° 0 mm 0 mps 663 mmHg 40%
    15:00 +30°C° 0 mm 0 mps 662 mmHg 41%
    16:00 +29°C° 0 mm 0 mps 662 mmHg 43%
    17:00 +30°C° 0 mm 1 mps 662 mmHg 46%
    18:00 +29°C° 0 mm 1 mps 662 mmHg 49%
    19:00 +29°C° 0.1 mm 1 mps 663 mmHg 52%
    20:00 +28°C° 0.1 mm 1 mps 663 mmHg 56%
    21:00 +27°C° 0.1 mm 1 mps 663 mmHg 60%
    22:00 +26°C° 0.4 mm 1 mps 663 mmHg 63%
    23:00 +26°C° 0.4 mm 1 mps 663 mmHg 67%
    Show more